Laramie, WY

9:24 PM MST on November 21, 2017 (GMT -0700)
Laramie Regional

Weather History for KLAR - July, 2012

Change the Weather History Date:

Tuesday, July 10, 2012

  Actual Average Record
Temperature  
Mean Temperature 68 °F 64 °F  
Max Temperature 82 °F 80 °F 92 °F (1954)
Min Temperature 53 °F 48 °F 37 °F (1982)
Degree Days  
Heating Degree Days 0 2  
Month to date heating degree days 11 30  
Since 1 June heating degree days 93 271  
Since 1 July heating degree days 11 30  
Cooling Degree Days 3 1  
Month to date cooling degree days 30 10  
Year to date cooling degree days 92 17  
Since 1 June cooling degree days 92 17  
Growing Degree Days 16 (Base 50)    
Moisture  
Dew Point 48 °F    
Average Humidity 57    
Maximum Humidity 93    
Minimum Humidity 21    
Precipitation  
Precipitation T in 0.04 in 2.27 in (1998)
Month to date precipitation 0.57 0.40  
Year to date precipitation 3.17 5.89  
Sea Level Pressure  
Sea Level Pressure 30.04 in    
Wind  
Wind Speed 13 mph (SSE)    
Max Wind Speed 25 mph    
Max Gust Speed 31 mph    
Visibility 10 miles    
Events      
T = Trace of Precipitation, MM = Missing Value Source: NWS Daily Summary

Daily Weather History Graph

Daily Weather History Graph

Search for Another Location

Airport or City:

Trip Planner

Search our weather history database for the weather conditions in past years. The results will help you decide how hot, cold, wet, or windy it might be!

Date:

Astronomy

Jul. 10, 2012 Rise Set
Actual Time 5:39 AM MDT 8:36 PM MDT
Civil Twilight 5:06 AM MDT 9:09 PM MDT
Nautical Twilight 4:23 AM MDT 9:51 PM MDT
Astronomical Twilight 3:34 AM MDT 10:40 PM MDT
Moon No Moon Rise 1:13 PM MDT (7/10)
Length of Visible Light 16h 03m
Length of Day
14h 57m
Waning Gibbous, 53% of the Moon is Illuminated
Jul 10
Waning Gibbous
Jul 10
Last Quarter
Jul 18
New
Jul 26
First Quarter
Aug 1
Full

Hourly Weather History & Observations

Time (MDT) Temp. Dew Point Humidity Pressure Visibility Wind Dir Wind Speed Gust Speed Precip Events Conditions
12:53 AM 57.9 °F 51.1 °F 78% 30.08 in 10.0 mi SSE 12.7 mph - N/A   Clear
1:53 AM 55.9 °F 51.1 °F 84% 30.06 in 10.0 mi SSE 15.0 mph - N/A   Clear
2:53 AM 55.9 °F 51.1 °F 84% 30.08 in 10.0 mi SSE 11.5 mph - N/A   Clear
3:53 AM 53.1 °F 51.1 °F 93% 30.08 in 10.0 mi SSE 9.2 mph - N/A   Clear
4:53 AM 53.1 °F 52.0 °F 96% 30.08 in 7.0 mi SSE 13.8 mph - N/A   Clear
5:53 AM 53.1 °F 52.0 °F 96% 30.10 in 5.0 mi SSE 12.7 mph - N/A   Clear
6:53 AM 55.0 °F 53.1 °F 93% 30.09 in 7.0 mi South 9.2 mph - N/A   Clear
7:53 AM 59.0 °F 53.1 °F 81% 30.10 in 10.0 mi South 11.5 mph - N/A   Clear
8:53 AM 64.0 °F 53.1 °F 67% 30.10 in 10.0 mi South 10.4 mph - N/A   Clear
9:53 AM 69.1 °F 51.1 °F 53% 30.07 in 10.0 mi SSE 12.7 mph - N/A   Clear
10:53 AM 72.0 °F 50.0 °F 46% 30.05 in 10.0 mi SE 9.2 mph 17.3 mph N/A   Clear
11:53 AM 75.0 °F 44.1 °F 33% 30.04 in 10.0 mi Variable 3.5 mph - N/A   Clear
12:53 PM 77.0 °F 43.0 °F 30% 30.02 in 10.0 mi Calm Calm - N/A   Partly Cloudy
1:53 PM 79.0 °F 35.1 °F 20% 30.00 in 10.0 mi Variable 5.8 mph - N/A   Clear
2:53 PM 78.1 °F 46.0 °F 32% 29.99 in 10.0 mi SSE 8.1 mph 16.1 mph N/A   Scattered Clouds
3:53 PM 78.1 °F 46.9 °F 33% 29.99 in 10.0 mi SE 17.3 mph 20.7 mph N/A   Partly Cloudy
4:53 PM 80.1 °F 46.0 °F 30% 29.97 in 10.0 mi SSE 16.1 mph 24.2 mph N/A   Clear
5:53 PM 77.0 °F 46.0 °F 33% 29.98 in 10.0 mi SE 23.0 mph - N/A   Clear
6:53 PM 73.9 °F 46.0 °F 37% 29.97 in 10.0 mi SE 20.7 mph - N/A   Clear
7:53 PM 69.1 °F 46.0 °F 44% 29.99 in 10.0 mi SE 20.7 mph - N/A   Clear
8:53 PM 66.9 °F 46.0 °F 47% 29.99 in 10.0 mi SE 15.0 mph - N/A   Clear
9:53 PM 64.9 °F 45.0 °F 48% 29.99 in 10.0 mi SE 13.8 mph - 0.00 in   Scattered Clouds
10:53 PM 63.0 °F 43.0 °F 48% 30.01 in 10.0 mi SSE 16.1 mph 19.6 mph N/A   Clear
11:53 PM 61.0 °F 43.0 °F 52% 30.01 in 10.0 mi SSE 12.7 mph - N/A   Clear